GFSFLT2_sfc_thetae_231.txt.gz
Theta_e
336 337 338 338 337 337 337 337 337 338 338 338 338 337 336 335 334 334 333 333 333 334 334 332 330 328 326
334 331 333 335 335 335 335 333 332 333 334 334 333 335 335 334 333 332 331 331 329 330 331 329 328 327 326
332 329 329 331 331 330 329 327 327 328 329 330 329 332 332 332 331 330 327 326 325 327 328 327 326 326 325
334 330 331 331 329 327 327 326 326 325 327 329 325 327 329 329 330 328 326 324 319 316 318 323 321 320 320
331 331 331 330 328 326 324 323 323 326 326 325 324 326 325 322 321 322 320 318 315 315 314 314 317 316 315
330 331 329 326 328 327 324 323 324 325 324 323 322 323 322 319 317 315 318 318 314 314 313 313 312 312 313
329 331 329 327 329 327 323 323 324 324 323 322 321 321 318 319 317 316 315 316 315 312 311 311 310 309 309
330 330 328 329 330 327 323 322 323 324 324 323 321 320 319 322 320 316 313 311 311 310 309 309 308 309 308
330 331 328 328 330 326 324 322 323 324 324 323 321 319 319 320 319 317 312 310 308 309 307 307 306 305 305
325 327 329 328 326 324 324 322 322 323 323 323 322 322 319 319 318 316 309 307 306 305 303 302 301 301 301
323 323 323 325 324 322 321 321 321 323 323 323 324 323 322 320 318 315 308 307 304 302 301 299 298 298 297
323 322 320 321 321 321 319 321 321 322 323 323 324 322 321 319 317 315 309 306 304 301 302 299 297 297 295
323 321 319 317 320 320 319 320 321 321 322 324 323 322 321 319 318 315 310 306 302 299 297 295 296 296 295
325 323 322 318 319 321 320 319 321 321 321 324 323 322 321 319 318 315 310 304 302 301 296 295 292 293 294
326 324 322 320 320 319 318 317 319 322 322 321 323 323 321 320 317 316 311 307 300 300 300 298 293 292 292
326 324 322 319 318 321 320 320 319 321 322 322 323 323 321 320 318 317 313 309 303 300 299 301 300 297 292

GFSFLT2_sfc_thetae_234.txt.gz
Theta_e
335 335 336 338 336 337 338 339 337 338 338 338 337 337 335 335 335 335 335 337 336 335 334 332 329 327 322
333 330 332 334 335 335 335 334 332 334 334 334 332 335 334 334 334 333 333 334 335 334 332 329 328 327 324
331 328 328 329 330 330 329 327 327 328 329 330 329 332 334 332 331 330 328 331 330 329 329 327 326 324 323
332 328 329 329 328 327 326 326 326 325 327 328 323 327 329 329 330 328 325 322 319 319 320 324 323 322 322
330 329 327 329 327 325 324 323 323 324 324 323 322 324 322 321 321 320 316 314 314 315 314 316 319 318 317
330 329 328 327 327 325 322 321 323 324 322 321 320 324 323 318 316 314 315 313 312 312 313 312 313 315 314
330 330 327 326 326 326 322 322 324 324 322 320 319 322 317 316 314 314 313 312 310 310 311 310 309 309 311
329 330 327 326 325 325 322 322 323 324 322 320 318 318 316 317 315 314 311 311 310 309 309 309 308 307 307
329 329 328 327 328 326 323 322 323 323 323 320 319 318 318 321 319 315 311 309 307 308 307 307 307 306 306
329 329 329 328 327 326 325 322 322 324 324 320 319 318 319 319 318 315 310 306 305 305 303 302 302 303 303
330 330 329 328 325 324 325 322 322 323 324 321 320 321 319 315 316 314 308 306 303 302 301 299 298 298 298
327 327 328 326 326 322 321 323 322 322 323 322 321 323 322 317 316 313 308 305 303 301 301 298 296 296 296
323 323 322 322 321 320 320 321 321 322 321 322 323 322 321 318 317 313 308 304 301 299 296 295 295 295 294
323 324 323 321 320 322 319 320 321 320 321 321 322 321 320 318 317 313 310 303 300 300 296 294 292 294 294
325 323 321 320 320 319 317 317 319 320 321 321 321 321 320 320 317 315 311 307 299 300 298 297 291 291 291
325 322 321 319 318 320 320 319 318 320 320 320 321 321 320 320 318 317 314 310 303 299 298 300 299 296 292

GFSFLT2_sfc_thetae_237.txt.gz
Theta_e
334 334 334 336 338 340 340 339 338 338 339 338 337 336 335 335 335 335 337 337 336 335 332 330 327 324 318
331 329 330 332 335 336 335 333 332 333 334 334 332 335 335 334 334 335 336 336 335 334 331 328 326 325 318
329 326 327 329 330 330 329 327 326 328 329 329 329 332 334 334 333 332 334 334 332 330 329 327 324 323 321
330 327 329 327 327 326 325 325 326 325 326 327 324 327 329 329 330 330 329 325 322 321 325 325 323 321 320
328 326 326 326 324 323 323 323 323 324 323 322 325 323 321 319 319 316 316 316 316 316 316 316 319 319 318
328 327 325 325 324 322 321 321 322 324 320 319 320 320 319 317 314 314 312 313 313 314 313 313 316 317 316
329 327 325 324 325 323 321 321 323 325 321 319 319 319 316 315 313 313 311 311 310 311 311 311 310 311 313
329 329 326 323 323 325 322 321 322 325 321 320 317 318 315 315 313 312 311 309 309 310 309 309 308 308 308
329 329 327 325 324 323 323 321 322 322 321 319 317 316 315 316 314 312 310 308 307 308 307 307 307 306 306
328 329 328 326 325 324 322 322 323 323 322 319 317 317 316 317 316 311 309 306 305 305 304 304 304 304 304
328 329 329 327 326 325 323 322 322 323 322 320 319 318 317 315 317 314 310 307 303 302 302 300 300 300 301
328 328 328 328 327 326 323 322 323 323 323 320 319 319 320 316 314 313 310 304 303 302 302 299 297 297 296
326 326 325 324 326 325 323 322 322 322 322 321 320 319 321 318 316 313 309 305 300 298 297 295 295 296 295
326 327 327 326 325 324 323 320 321 321 322 322 321 320 321 319 316 312 309 304 302 299 296 294 293 294 295
325 326 324 324 321 319 319 320 319 320 321 322 322 321 319 319 316 313 310 308 301 298 297 297 291 291 292
323 323 321 320 320 321 321 321 320 319 320 321 321 320 318 318 318 316 313 310 306 300 298 299 297 295 292

GFSFLT2_sfc_thetae_240.txt.gz
Theta_e
332 331 336 338 339 340 340 339 339 339 338 338 338 337 337 337 336 337 338 337 336 333 330 328 325 322 315
329 329 330 333 336 337 336 334 332 333 334 334 332 335 335 336 335 337 337 336 335 332 330 326 324 322 316
328 325 326 329 330 330 328 327 326 327 329 330 329 332 335 334 335 335 336 335 332 330 328 326 324 321 317
328 326 328 326 326 326 326 325 325 325 326 327 324 327 330 329 333 334 331 328 324 322 324 324 322 320 319
325 325 326 324 323 323 323 323 323 323 322 324 326 321 320 318 317 320 319 318 317 317 317 320 320 319 319
325 324 325 324 322 321 321 321 323 324 319 320 322 319 317 314 312 313 314 315 315 315 315 315 315 317 318
326 325 324 323 322 322 320 320 325 325 318 318 318 318 315 313 312 310 311 312 312 312 312 313 312 312 315
328 327 326 324 323 323 320 321 322 325 322 318 317 316 314 313 312 310 310 309 310 310 310 311 310 309 309
327 327 327 325 324 322 322 321 322 324 322 318 316 314 314 314 312 310 309 307 307 308 308 308 307 307 307
328 327 327 326 325 323 322 322 322 322 321 317 316 315 315 314 313 310 308 306 305 305 304 304 305 304 304
328 328 328 327 325 324 321 321 322 322 321 319 317 315 315 314 313 311 307 305 304 303 303 301 301 301 302
328 328 328 327 325 325 322 321 322 322 321 320 317 316 317 314 313 314 310 307 306 305 303 300 298 298 297
326 325 325 324 325 325 324 321 321 322 322 320 319 317 318 318 316 314 310 306 302 299 300 297 296 297 296
326 327 327 326 326 326 325 322 322 322 321 321 320 318 318 318 317 313 309 305 304 301 300 297 296 295 295
326 327 325 326 323 323 322 321 321 321 322 322 320 320 318 319 317 314 311 308 304 301 300 300 292 292 291
325 324 324 323 320 321 323 323 322 320 321 322 321 321 320 319 317 315 313 311 308 303 300 300 297 295 292

GFSFLT2_sfc_thetae_246.txt.gz
Theta_e
333 335 337 339 339 339 340 340 339 338 339 340 339 340 338 339 340 338 336 335 332 330 328 326 325 325 324
332 329 331 335 337 338 337 334 333 334 335 335 334 338 339 339 338 337 336 335 332 329 327 325 323 322 325
331 328 329 330 332 331 331 327 329 337 336 333 330 333 336 336 338 337 336 334 330 328 326 324 322 325 325
329 332 335 335 336 335 335 334 332 335 335 332 327 328 331 333 336 336 335 330 326 326 325 322 326 325 324
330 330 333 333 335 336 335 334 333 333 334 333 334 332 334 329 334 335 332 331 330 328 327 327 326 325 325
331 330 331 332 333 334 334 333 333 332 333 332 332 332 332 333 332 333 332 332 330 329 328 327 325 325 323
331 331 331 329 331 332 334 333 332 331 331 330 330 330 329 330 331 331 331 330 329 328 328 327 326 325 324
330 331 331 331 330 331 331 332 331 331 331 327 328 327 326 327 329 329 329 329 328 328 327 327 326 325 324
329 330 331 331 330 329 330 331 331 330 329 328 328 327 325 325 326 326 326 326 326 326 325 325 325 325 324
332 329 329 330 331 327 328 329 330 329 329 328 327 327 325 324 323 323 322 322 322 322 322 322 322 323 323
331 330 329 329 329 327 326 329 329 329 328 328 327 328 326 323 322 321 319 320 318 318 318 319 319 319 320
330 329 329 328 328 329 326 325 327 327 327 327 327 327 326 324 322 320 319 319 318 318 312 312 316 316 316
325 326 325 324 325 326 328 326 324 324 324 325 326 326 325 324 323 321 319 317 313 313 311 312 311 313 314
310 322 327 327 327 326 328 325 324 325 325 323 325 324 325 323 322 322 320 316 316 311 311 308 306 311 312
305 312 327 327 326 325 324 323 325 323 325 326 324 325 325 325 323 323 321 317 314 312 310 311 303 305 305
304 307 310 324 322 324 326 325 324 325 323 325 323 324 325 325 324 324 323 320 318 313 311 311 314 313 307